[[{"header":{"parameterUnit":"m.s-1","parameterCategory":1,"la1":30.2991,"la2":30.254,"lo1":-89.0895,"lo2":-89.0444,"dy":0.0017,"dx":0.0017,"nx":28,"ny":28,"refTime":"2025-11-09T09:00:00:Z","depth":0,"parameterNumber":2,"parameterNumberName":"U-component_of_WINDS"},"data":[0,0,0,0,0,0,0,0,0,0,0,0,0,0,0,0,0,0,0,0,0,0,0,0,0,0,0,0,0,0,0,0,0,0,0,0,0,0,0,0,0,0,0,0,0,0,0,0,0,0,0,0,0,0,0,0,0,0,0.8605,0.8605,0,0.8649,0.865,0.865,0.8626,0.8624,0.8623,0.8622,0.8666,0.8669,0.8671,0,0,0,0,0,0,0,0,0,0,0,0,0,0.8497,0.8499,0.8605,0.8605,0.8606,0.8649,0.865,0.865,0.8626,0.8624,0.8623,0.8622,0.8666,0.8668,0.8671,0,0,0,0,0,0,0,0,0,0,0,0,0,0.8543,0.85,0.8605,0.8599,0.8599,0.8649,0.865,0.8651,0.8626,0.8624,0.8623,0.8621,0.8665,0.8668,0.8672,0.8729,0,0,0.8682,0.8684,0,0,0,0,0,0,0,0,0.854,0.8547,0.8599,0.86,0.86,0.863,0.8628,0.8677,0.8627,0.8616,0.8622,0.862,0.8656,0.866,0.8672,0.8732,0.8733,0.8682,0.8685,0.8686,0.8687,0,0,0,0,0,0,0,0.8537,0.8545,0.8622,0.86,0.86,0.8594,0.8598,0.8637,0.8645,0.8617,0.8615,0.8621,0.8655,0.8669,0.8673,0.8734,0.8682,0.8685,0.8688,0.8689,0.8842,0.8844,0,0,0,0,0,0,0.8535,0.8542,0.8621,0.8624,0.8565,0.8597,0.8602,0.8622,0.8645,0.8647,0.8622,0.8619,0.8664,0.8669,0.8674,0.8744,0.8686,0.8689,0.8691,0.884,0.8843,0.8845,0,0,0,0,0,0,0.8532,0.8542,0.8619,0.8583,0.8592,0.8601,0.8624,0.8624,0.8637,0.8649,0.865,0.8635,0.8663,0.867,0.8716,0.8745,0.8691,0.8694,0.8838,0.8841,0.8844,0.8883,0,0,0,0,0,0,0.8529,0.8541,0.8564,0.8583,0.8594,0.8661,0.8625,0.8626,0.8644,0.864,0.8661,0.8663,0.8662,0.8711,0.8719,0.8749,0.8697,0.8835,0.8839,0.8843,0.8879,0.8887,0.8893,0,0,0,0,0,0.8526,0.8573,0.8565,0.8575,0.8623,0.8662,0.8668,0.8667,0.8646,0.8669,0.8676,0.8662,0.874,0.8716,0.8725,0.8756,0.8834,0.8838,0.8843,0.8876,0.8885,0.8893,0,0,0,0,0,0,0.8556,0.8575,0.8567,0.8622,0.8641,0.8658,0.8687,0.8677,0.8702,0.8697,0.8694,0.8698,0.8747,0.8756,0.8728,0.8813,0.8784,0.879,0.8805,0.8814,0.8821,0.8819,0.87,0,0,0,0,0,0.857,0.8601,0.8616,0.8663,0.8673,0.8678,0.8695,0.8692,0.8711,0.8719,0.873,0.8748,0.8777,0.8796,0.8823,0.8879,0.8883,0.8905,0.8912,0.8918,0.8924,0.8954,0.8964,0.886,0.886,0.886,0,0,0.8597,0.8612,0.8632,0.8669,0.8683,0.8715,0.8685,0.872,0.8744,0.8724,0.8769,0.8777,0.8798,0.8849,0.8872,0.8858,0.8954,0.8924,0.8928,0.8931,0.896,0.897,0.8979,0.8863,0.8862,0.8862,0,0,0.8664,0.8678,0.8719,0.8734,0.8756,0.8759,0.8768,0.8787,0.8792,0.8837,0.8823,0.885,0.8899,0.8914,0.8929,0.9,0.8988,0.9009,0.9047,0.9076,0.9084,0.9092,0.9117,0.9126,0.9014,0.9014,0.9014,0,0.8696,0.8744,0.8741,0.8778,0.8794,0.8778,0.8819,0.8833,0.8862,0.8874,0.8857,0.8919,0.8931,0.8986,0.9003,0.9015,0.9026,0.9007,0.9083,0.9091,0.9097,0.9122,0.9131,0.9017,0.9017,0.9016,0.9016,0,0.8782,0.8816,0.8846,0.8875,0.8895,0.8933,0.8935,0.8955,0.895,0.8955,0.9,0.9014,0.9044,0.9056,0.9051,0.911,0.91,0.9084,0.9055,0.911,0.9133,0.9142,0.902,0.9019,0.9019,0.9018,0,0,0.8871,0.8897,0.8909,0.8921,0.8944,0.8969,0.9006,0.9035,0.9053,0.9073,0.9104,0.9145,0.913,0.9146,0.9142,0.9168,0.9223,0.9148,0.9148,0.9162,0.9289,0.9302,0.9313,0.9215,0.9217,0.9218,0.9287,0,0.894,0.9006,0.9003,0.9064,0.9095,0.9079,0.9111,0.9128,0.9133,0.9159,0.9164,0.9194,0.9171,0.918,0.9205,0.9211,0.9249,0.9206,0.9244,0.9245,0.924,0.9325,0.9339,0.9404,0.9296,0.9298,0.9299,0,0.9029,0.9053,0.9117,0.9134,0.9147,0.9176,0.9202,0.9227,0.9246,0.9247,0.9265,0.9257,0.9293,0.9262,0.9313,0.9284,0.9298,0.9304,0.9306,0.931,0.9276,0.9332,0.9424,0.9434,0.9313,0.9312,0.9311,0,0.9088,0.9136,0.918,0.9192,0.9213,0.9234,0.9243,0.926,0.9277,0.9299,0.931,0.9336,0.9351,0.9371,0.937,0.9347,0.9421,0.939,0.9423,0.9424,0.9441,0.944,0.9537,0.9449,0.9449,0.9448,0.9448,0,0.9165,0.9205,0.9207,0.9235,0.9279,0.9275,0.9318,0.9326,0.934,0.9368,0.9356,0.9382,0.9379,0.9405,0.9404,0.9446,0.9452,0.9455,0.9454,0.9456,0.9456,0.9467,0.9463,0.9451,0.945,0.945,0.945,0,0.9239,0.9242,0.929,0.9305,0.931,0.9342,0.9355,0.9381,0.9384,0.942,0.9428,0.9433,0.9464,0.9464,0.9499,0.9498,0.9549,0.9543,0.9544,0.9543,0.9576,0.9573,0.9685,0.9699,0.9601,0.9602,0.9602,0,0.9289,0.9319,0.9339,0.9357,0.9368,0.9397,0.9415,0.9412,0.9431,0.9453,0.9476,0.9505,0.9528,0.9577,0.9584,0.961,0.9605,0.9642,0.9609,0.961,0.9606,0.9605,0.9608,0.9649,0.965,0.9651,0.9652,0,0.9377,0.9377,0.9403,0.943,0.9451,0.9472,0.9491,0.9506,0.9505,0.9527,0.9558,0.9576,0.9611,0.964,0.9665,0.9674,0.9663,0.9662,0.9671,0.9674,0.9673,0.9675,0.9562,0.966,0.9659,0.9658,0.9658,0.9657,0.944,0.9467,0.9485,0.9514,0.9528,0.9546,0.9571,0.9577,0.9603,0.9632,0.9628,0.9663,0.9679,0.9712,0.9723,0.975,0.9737,0.975,0.9754,0.9757,0.9761,0.9668,0.9754,0.9754,0.9754,0.9753,0.9753,0,0.9528,0.9539,0.9566,0.9593,0.9616,0.9603,0.9624,0.9644,0.9674,0.9691,0.9714,0.9749,0.9777,0.9785,0.9812,0.9832,0.9827,0.9839,0.9838,0.984,0.9771,0.9761,0.9842,0.9842,0.9842,0.9842,0.9842,0.9842,0.9577,0.9621,0.9622,0.9673,0.9682,0.9717,0.9729,0.9746,0.9759,0.9799,0.9822,0.9827,0.984,0.9868,0.9893,0.9894,0.9905,0.9919,0.9919,0.9854,0.9845,0.9837,0.9827,0.9921,0.9921,0.9986,0.9986,0.9987]},{"header":{"parameterUnit":"m.s-1","parameterCategory":1,"la1":30.2991,"la2":30.254,"lo1":-89.0895,"lo2":-89.0444,"dy":0.0017,"dx":0.0017,"nx":28,"ny":28,"refTime":"2025-11-09T09:00:00:Z","depth":0,"parameterNumber":3,"parameterNumberName":"V-component_of_WINDS"},"data":[0,0,0,0,0,0,0,0,0,0,0,0,0,0,0,0,0,0,0,0,0,0,0,0,0,0,0,0,0,0,0,0,0,0,0,0,0,0,0,0,0,0,0,0,0,0,0,0,0,0,0,0,0,0,0,0,0,0,2.4444,2.4444,0,2.4371,2.4371,2.437,2.4302,2.4301,2.43,2.4299,2.4226,2.4225,2.4223,0,0,0,0,0,0,0,0,0,0,0,0,0,2.4525,2.4524,2.4445,2.4444,2.4443,2.4372,2.4371,2.437,2.4302,2.4301,2.43,2.4299,2.4226,2.4225,2.4223,0,0,0,0,0,0,0,0,0,0,0,0,0,2.4475,2.4524,2.4445,2.44,2.4396,2.4372,2.437,2.4369,2.4302,2.4301,2.43,2.4299,2.4227,2.4225,2.4223,2.4237,0,0,2.4218,2.4217,0,0,0,0,0,0,0,0,2.4478,2.4472,2.4408,2.4403,2.4398,2.4344,2.4372,2.4325,2.4303,2.4338,2.4299,2.4298,2.4266,2.4261,2.425,2.4234,2.4231,2.4217,2.4216,2.4216,2.4215,0,0,0,0,0,0,0,2.4482,2.4475,2.4416,2.4407,2.4401,2.4384,2.4376,2.4363,2.431,2.4335,2.433,2.4322,2.4263,2.4252,2.4248,2.423,2.4218,2.4216,2.4215,2.4214,2.422,2.4221,0,0,0,0,0,0,2.4492,2.4478,2.4418,2.4413,2.4436,2.4384,2.4374,2.4363,2.431,2.4301,2.4323,2.4319,2.4256,2.425,2.4245,2.4258,2.4216,2.4214,2.4213,2.4219,2.422,2.4222,0,0,0,0,0,0,2.4494,2.4487,2.4421,2.4444,2.4435,2.4384,2.4372,2.4362,2.4351,2.4301,2.4291,2.4321,2.4255,2.4248,2.4239,2.4254,2.4213,2.4212,2.4217,2.4219,2.4221,2.4284,0,0,0,0,0,0,2.4496,2.4488,2.4493,2.4445,2.4434,2.4417,2.4373,2.4362,2.4348,2.4342,2.4297,2.4288,2.4253,2.4242,2.4238,2.4251,2.421,2.4216,2.4218,2.422,2.428,2.4288,2.4294,0,0,0,0,0,2.4499,2.4514,2.4494,2.4487,2.4439,2.4418,2.4411,2.437,2.4349,2.4354,2.4322,2.429,2.4253,2.4242,2.4236,2.4249,2.4215,2.4218,2.422,2.4277,2.4286,2.4294,0,0,0,0,0,0,2.4566,2.4507,2.4484,2.4483,2.4456,2.4406,2.4411,2.4381,2.4359,2.4355,2.4305,2.4295,2.4293,2.427,2.4259,2.426,2.423,2.4231,2.4275,2.4283,2.429,2.4296,2.4209,0,0,0,0,0,2.4581,2.4568,2.4517,2.4522,2.4509,2.4463,2.4452,2.4422,2.4392,2.438,2.4347,2.4319,2.4301,2.4291,2.4272,2.4276,2.4265,2.4282,2.4289,2.4295,2.4298,2.4298,2.4305,2.4231,2.4231,2.4231,0,0,2.4611,2.4577,2.4572,2.4534,2.451,2.4498,2.4453,2.4443,2.4433,2.4379,2.4369,2.4344,2.4309,2.4307,2.4305,2.4288,2.4315,2.4299,2.4304,2.4303,2.4301,2.4308,2.4315,2.4233,2.4232,2.4232,0,0,2.466,2.4633,2.4633,2.4609,2.4572,2.4541,2.4541,2.4495,2.4476,2.4465,2.4424,2.4412,2.4382,2.4359,2.4344,2.4383,2.4352,2.4378,2.4414,2.4415,2.442,2.4425,2.4439,2.4445,2.438,2.438,2.438,0,2.4702,2.4682,2.4638,2.4629,2.4614,2.4563,2.4563,2.4541,2.45,2.4491,2.4472,2.4434,2.4407,2.4399,2.4408,2.4397,2.4396,2.4383,2.4423,2.4428,2.4432,2.4444,2.445,2.4383,2.4383,2.4383,2.4382,0,2.4736,2.4723,2.4728,2.4689,2.4674,2.467,2.4624,2.4614,2.4586,2.4556,2.4545,2.4511,2.4484,2.4479,2.4452,2.4467,2.4458,2.4432,2.4401,2.4443,2.4454,2.4458,2.4388,2.4387,2.4386,2.4385,0,0,2.4826,2.4761,2.4764,2.4745,2.47,2.4689,2.4682,2.4655,2.4647,2.462,2.4613,2.4589,2.4564,2.4547,2.4516,2.4517,2.4549,2.449,2.4489,2.4503,2.4564,2.4584,2.459,2.4529,2.4529,2.453,2.4567,0,2.4868,2.4853,2.4812,2.4809,2.4797,2.4747,2.4741,2.4713,2.4685,2.467,2.4639,2.4622,2.4591,2.458,2.4578,2.4546,2.4561,2.4543,2.4522,2.4522,2.4533,2.4596,2.4617,2.4654,2.4571,2.4572,2.4572,0,2.4914,2.489,2.4887,2.4841,2.4834,2.483,2.4801,2.4787,2.4753,2.4733,2.4713,2.4678,2.4668,2.4639,2.4624,2.4613,2.4602,2.4584,2.4585,2.4582,2.455,2.4595,2.4665,2.4671,2.4578,2.4578,2.4577,0,2.4981,2.4947,2.494,2.4925,2.4872,2.487,2.4848,2.4813,2.4799,2.4774,2.4764,2.4738,2.4724,2.4705,2.4665,2.4647,2.4655,2.4622,2.4638,2.4639,2.4643,2.4643,2.4712,2.4635,2.4635,2.4635,2.4635,0,2.5032,2.5032,2.4969,2.4965,2.4963,2.4915,2.4915,2.4888,2.4857,2.4846,2.4802,2.4793,2.474,2.4725,2.4693,2.4686,2.468,2.4664,2.4655,2.4668,2.467,2.4661,2.4657,2.4636,2.4636,2.4636,2.4635,0,2.5106,2.5064,2.5053,2.5003,2.4991,2.4991,2.4948,2.4943,2.4911,2.4899,2.4893,2.4844,2.4824,2.4782,2.475,2.4729,2.473,2.4714,2.4741,2.4736,2.4754,2.4753,2.482,2.4826,2.4745,2.4746,2.4747,0,2.5142,2.514,2.509,2.5079,2.5059,2.5043,2.5028,2.4981,2.4967,2.4928,2.4927,2.4903,2.4882,2.4852,2.4814,2.479,2.4774,2.4799,2.477,2.4783,2.4775,2.4776,2.4775,2.4806,2.4807,2.4808,2.4809,0,2.521,2.5189,2.5169,2.5142,2.5125,2.5102,2.5076,2.507,2.5016,2.5003,2.4982,2.4965,2.4933,2.491,2.488,2.4856,2.4824,2.4818,2.482,2.4833,2.4849,2.4841,2.4759,2.4817,2.4816,2.4815,2.4815,2.4814,2.5266,2.5262,2.5226,2.5205,2.518,2.5157,2.5148,2.5116,2.5097,2.5067,2.5039,2.5021,2.4986,2.4942,2.4921,2.4906,2.4889,2.4893,2.4894,2.4896,2.4901,2.4851,2.49,2.49,2.4899,2.4899,2.4899,0,2.5332,2.5305,2.5287,2.5251,2.5235,2.5205,2.5174,2.5162,2.5146,2.5117,2.5096,2.5072,2.5049,2.5009,2.4983,2.4978,2.4962,2.4973,2.4973,2.4968,2.4917,2.4918,2.4986,2.4986,2.4986,2.4986,2.4986,2.4986,2.5364,2.5356,2.533,2.5309,2.5283,2.5264,2.5249,2.5227,2.5203,2.5177,2.5158,2.5131,2.5097,2.5068,2.5046,2.5035,2.5027,2.5043,2.5027,2.498,2.4972,2.4964,2.4965,2.5041,2.5042,2.5079,2.508,2.508]}]]